Location: Samoth
(37.3328°N, 88.7876°W)
Time: 02:19:17
(UTC+00:00)

Envisat - Pass Details

Date: 19 September 2021
Orbit: 764 x 766 km, 98.2° (Epoch: 15 October)

Event Time Altitude Azimuth Distance (km) Brightness Sun altitude
Rises 11:02:36 0° 13° (NNE) 3,237 6.5 -8.4°
Reaches altitude 10° 11:04:55 10° 14° (NNE) 2,307 5.8 -7.9°
Maximum altitude 11:10:00 85° 101° (ESE) 772 3.1 -6.9°
Drops below altitude 10° 11:15:04 10° 192° (SSW) 2,291 5.3 -5.9°
Sets 11:17:22 0° 193° (SSW) 3,213 6.0 -5.5°
